Tracking 25648 objects as of 17-May-2022
HD Live streaming from Space Station
objects crossing your sky now

FLOCK 4S 30

Track FLOCK 4S 30 now!
10-day predictions
FLOCK 4S 30 is classified as:


NORAD ID: 47544
Int'l Code: 2021-006EE
Perigee: 520.9 km
Apogee: 532.7 km
Inclination: 97.4 °
Period: 95.0 minutes
Semi major axis: 6897 km
RCS: Unknown
Launch date: January 24, 2021
Source: United States (US)
Launch site: AIR FORCE EASTERN TEST RANGE (AFETR)
aabbcc
Your satellite tracking list
Your tracking list is empty




NASA's NSSDC Master Catalog

Two Line Element Set (TLE):
1 47544U 21006EE  22136.57617018  .00007349  00000-0  39181-3 0  9990
2 47544  97.4402 195.8534 0008560  52.3039 307.8968 15.15435576 73382
Source of the keplerian elements: AFSPC